ECMWFNIL_925_spd_000.txt.gz
Wind_Speed
3 3 3 4 4 4 4 5 5 6 7 8 9 9 9 10 11 12 12 13 14 15 15 15 16 16 17 17 19 20 20 21 21 22 24 27 30 34 35 38 42 42
3 4 4 4 5 5 5 6 7 7 8 9 9 10 10 10 11 12 13 13 14 15 16 16 16 16 17 17 18 19 21 22 22 21 21 24 28 31 32 34 39 43
4 5 5 6 6 6 7 7 8 8 9 9 10 10 11 11 12 13 14 14 15 16 16 17 17 17 17 18 19 20 21 23 24 23 22 22 24 27 30 31 33 37
5 6 6 6 7 7 7 8 8 9 9 10 10 11 11 12 13 14 15 16 16 17 17 17 18 19 19 19 19 20 21 23 24 24 24 23 22 25 30 30 31 34
6 6 6 7 7 7 8 9 9 10 10 11 12 12 13 14 15 16 16 17 17 17 17 17 18 19 19 20 20 20 20 21 23 25 26 26 23 23 27 29 32 35
5 6 6 7 7 8 9 9 10 11 12 13 14 15 15 16 17 17 18 18 18 19 19 18 19 19 19 20 21 21 21 21 22 24 26 28 27 26 26 27 30 32
5 6 7 8 8 9 10 11 12 14 15 16 16 17 17 18 18 19 19 19 19 20 21 20 20 20 20 20 21 22 22 23 23 24 26 28 29 30 28 27 28 30
5 6 7 8 9 10 11 12 14 16 17 18 19 20 19 20 20 21 21 21 21 21 21 21 21 22 22 22 22 23 23 23 24 25 26 27 29 32 32 29 28 29
6 7 8 9 10 11 13 14 16 18 19 20 21 22 22 23 23 22 22 23 23 23 22 23 23 23 23 23 24 24 24 25 25 25 26 26 28 30 32 33 31 30
6 7 8 10 11 12 15 17 18 19 20 21 21 22 23 25 25 25 25 25 25 24 24 24 25 24 25 25 25 26 26 26 26 27 27 27 28 29 31 34 34 32
7 8 9 10 12 14 17 19 19 20 21 22 22 23 24 25 26 26 27 26 26 26 26 26 26 26 27 27 27 26 26 27 28 28 29 28 29 30 30 32 35 34
7 8 9 11 14 16 18 19 20 21 22 22 23 24 25 27 28 28 27 26 26 27 27 27 27 28 28 28 28 27 27 27 28 29 30 30 30 31 31 32 33 34
7 8 10 12 14 16 18 19 20 21 22 23 24 25 27 30 31 30 29 28 28 28 28 29 29 29 30 29 29 28 28 28 28 29 30 31 32 32 32 32 33 34
7 8 10 13 14 16 17 19 20 22 23 24 25 26 28 30 30 29 28 29 29 29 29 29 30 30 30 30 29 28 29 29 29 29 30 31 32 33 33 33 33 34
7 9 11 13 15 16 17 19 21 22 23 24 25 26 28 29 29 29 29 29 30 30 31 30 31 32 31 30 29 28 27 28 29 29 30 30 31 33 34 34 33 33
8 9 12 13 13 15 18 20 22 23 24 25 26 26 27 27 29 30 30 30 31 31 31 31 32 32 32 32 32 30 28 27 27 28 29 30 31 32 33 34 35 34
8 10 12 12 13 16 18 20 22 23 24 25 26 26 26 28 29 30 30 30 31 31 31 32 33 33 33 34 35 35 33 30 28 28 28 30 31 32 33 33 34 34
8 10 11 13 14 16 18 20 22 23 24 25 25 26 27 29 30 29 29 29 30 31 32 33 34 34 34 35 36 36 36 35 32 31 30 30 31 32 33 32 32 33
8 10 12 13 14 16 18 20 22 23 24 24 25 26 27 28 29 29 30 30 30 31 33 34 34 35 36 36 37 37 38 38 36 34 33 33 32 31 31 32 32 32
9 11 13 13 14 16 19 21 22 23 24 24 25 26 26 28 29 29 29 29 30 31 33 33 34 34 35 37 38 38 39 40 39 36 36 36 35 34 32 32 33 32
10 11 12 13 15 17 20 21 23 25 25 26 27 27 27 27 28 28 28 29 30 31 33 34 33 33 34 36 38 38 38 40 40 38 38 38 37 36 35 33 32 33
11 12 13 14 17 19 21 22 25 26 28 29 29 28 27 26 27 27 28 30 30 31 33 35 35 34 35 36 37 37 38 40 40 38 38 39 38 37 36 35 34 34
11 12 14 16 18 20 22 23 25 27 29 30 29 28 27 27 28 29 29 30 31 32 34 35 36 35 36 37 38 38 39 39 37 36 36 38 38 37 35 35 36 36
11 13 15 16 18 20 22 23 26 28 30 29 28 29 29 29 30 30 30 31 31 33 33 35 36 35 36 38 39 39 40 39 35 33 35 35 36 37 35 35 36 38
12 13 14 16 19 21 22 23 26 30 30 29 28 29 29 29 29 30 31 31 31 32 33 33 35 35 37 39 41 41 41 40 35 32 33 34 34 34 34 33 34 37
11 13 14 16 19 21 22 23 26 29 30 29 28 29 29 29 29 30 31 30 30 30 31 31 32 33 35 38 41 41 41 40 36 32 32 33 32 31 31 31 33 34

ECMWFNIL_925_spd_003.txt.gz
Wind_Speed
10 9 8 7 6 5 5 5 5 5 5 5 6 6 7 7 8 8 9 9 10 11 12 13 15 16 17 17 17 17 18 19 20 20 20 21 21 22 25 29 33 33
11 9 8 7 6 6 5 5 5 6 6 6 7 7 8 8 9 10 10 11 11 11 12 13 15 16 17 18 18 18 18 19 20 20 20 21 22 22 23 26 30 33
11 10 9 8 7 6 6 6 6 6 6 7 7 8 8 9 10 10 11 12 12 13 13 14 15 17 17 18 18 19 19 19 20 21 21 22 22 23 24 24 27 32
12 10 9 8 7 7 6 6 7 7 7 7 8 8 9 9 11 12 13 14 14 14 15 16 17 17 18 18 19 20 20 21 21 21 22 23 22 23 25 24 26 31
12 10 9 8 8 7 7 7 8 8 8 8 8 9 10 12 14 14 14 14 15 16 17 18 18 18 18 18 19 20 21 21 21 21 22 23 23 24 24 24 25 29
12 10 9 9 8 8 8 8 9 9 9 9 10 11 11 13 15 15 15 15 16 17 18 19 19 19 19 18 19 20 20 21 21 21 22 23 24 25 24 25 25 26
12 10 10 9 9 9 9 9 10 10 10 11 12 13 14 15 16 16 17 17 17 18 19 20 20 20 20 19 20 20 20 22 21 22 23 24 25 26 26 26 27 27
11 10 10 9 9 10 10 11 11 11 12 12 13 15 17 18 18 18 18 18 19 19 20 21 21 21 21 20 21 21 21 22 22 22 23 24 25 26 27 27 27 28
11 10 10 10 10 10 11 11 12 12 13 13 15 17 19 20 20 20 20 20 21 21 21 21 22 22 22 22 22 22 23 22 22 23 23 24 25 26 26 27 28 29
11 10 10 10 10 10 11 11 12 12 14 15 16 17 19 21 21 21 22 22 23 23 23 23 23 23 23 23 23 24 24 24 24 24 25 25 26 26 26 27 28 29
11 10 10 10 10 10 10 11 12 13 14 15 16 17 20 21 22 22 23 23 24 24 24 25 25 25 25 24 25 25 25 26 25 25 26 26 27 27 27 28 28 29
10 10 9 9 10 10 10 11 12 13 14 15 16 19 21 21 22 23 23 24 26 26 26 26 26 26 26 26 26 26 26 27 27 28 27 27 28 28 28 29 29 29
10 9 9 9 9 9 10 11 12 13 14 16 18 20 21 22 22 23 24 25 26 27 27 28 28 27 27 27 27 27 27 27 28 29 29 29 29 29 29 30 31 31
9 9 8 9 9 9 10 11 12 14 15 17 19 20 21 22 22 24 25 25 26 27 27 27 28 28 28 28 28 28 28 29 29 30 30 30 30 30 30 30 32 32
9 8 8 9 9 10 10 12 14 15 17 19 20 20 22 23 23 24 25 26 27 27 27 28 29 29 29 29 28 27 27 28 29 30 30 30 30 31 31 31 32 32
8 8 8 9 9 9 11 13 15 17 18 19 20 21 22 23 24 25 26 27 28 28 29 30 31 31 31 31 30 30 29 28 28 29 29 30 30 31 31 32 32 32
8 8 8 9 8 10 12 14 16 17 18 19 20 21 22 23 24 25 26 27 28 29 30 32 33 33 33 33 33 33 33 32 31 30 29 29 30 31 31 31 32 32
7 7 8 8 9 12 14 15 16 17 18 20 21 22 23 23 24 25 25 26 28 29 31 32 34 34 34 35 35 35 35 35 34 33 32 31 31 31 31 31 31 31
7 7 7 8 10 13 15 15 16 18 19 20 21 22 24 24 25 26 26 27 28 29 31 32 33 34 35 36 36 37 37 37 37 37 35 34 33 33 32 32 31 31
6 7 8 9 10 13 15 16 18 19 20 20 21 22 25 25 26 27 27 27 28 29 30 31 32 33 34 35 35 36 36 37 38 38 38 38 36 35 35 34 33 32
6 7 9 9 10 13 15 17 19 20 21 21 21 23 25 26 26 27 27 28 29 29 31 32 32 32 34 34 36 36 35 37 37 36 39 41 39 37 37 37 36 35
7 8 9 10 10 13 16 19 20 20 21 21 23 25 26 26 26 27 27 29 30 30 32 34 34 34 35 35 36 37 37 39 38 36 38 41 41 39 38 37 37 37
7 8 9 10 11 14 17 19 20 20 21 22 23 25 25 26 26 27 27 29 30 30 32 34 35 35 35 36 36 36 37 37 36 36 36 38 39 39 38 37 38 38
7 8 10 12 13 15 17 19 20 20 21 21 23 25 26 26 26 27 27 28 29 31 32 34 37 37 37 37 37 37 38 36 34 34 36 36 36 37 37 37 38 39
7 8 10 12 13 14 17 19 20 20 20 21 23 25 26 26 26 27 28 29 30 32 33 34 37 37 37 38 38 38 39 38 35 34 35 35 35 35 36 36 37 38
7 8 10 11 12 14 15 17 19 20 20 22 24 25 25 25 26 27 30 31 30 31 32 33 35 37 37 36 37 36 37 37 36 35 33 33 34 34 34 35 36 36

ECMWFNIL_925_spd_006.txt.gz
Wind_Speed
15 15 14 13 11 10 9 9 7 7 7 6 6 6 6 7 8 8 9 9 10 11 13 14 15 15 16 16 15 16 17 18 19 19 19 19 20 21 22 22 23 25
16 15 14 13 12 11 10 10 9 8 8 7 7 7 7 8 8 9 9 10 11 11 12 13 14 15 15 16 16 16 16 17 18 19 19 20 20 21 23 22 22 24
16 15 14 14 13 12 11 11 10 9 8 8 8 8 8 8 9 9 10 10 11 13 13 13 14 15 15 16 16 17 17 17 18 18 19 21 21 21 22 22 22 22
17 16 16 14 13 12 12 11 11 10 9 8 8 8 8 9 9 10 11 12 13 14 15 15 16 16 16 16 16 16 17 18 19 18 20 21 21 22 22 22 22 22
18 17 16 16 14 13 13 12 11 10 9 9 9 9 9 10 11 11 12 12 13 14 15 15 16 16 16 16 16 17 18 19 19 19 19 21 21 22 23 22 22 23
19 18 16 16 15 14 13 12 11 10 10 10 10 11 11 11 12 12 12 13 13 14 15 15 16 16 16 16 16 17 18 19 19 19 19 20 21 22 22 23 23 23
19 18 17 15 15 14 13 12 11 11 11 11 11 12 12 12 13 13 14 14 15 15 15 16 16 16 17 17 17 18 19 20 20 20 20 20 21 22 22 23 24 24
20 18 17 16 15 14 13 12 11 12 12 12 13 13 13 14 14 15 15 16 16 16 16 17 17 17 17 17 18 19 20 20 20 20 21 21 22 22 22 22 24 25
19 18 17 16 15 14 13 12 12 12 12 13 13 14 14 15 15 16 16 16 17 17 18 18 18 18 19 19 19 20 20 21 21 21 22 22 22 23 23 23 24 26
19 18 17 16 15 14 13 12 12 12 12 13 14 14 15 15 16 16 16 17 18 19 19 19 19 20 20 20 20 21 22 22 22 23 23 23 24 24 23 24 24 26
19 17 16 15 14 13 12 12 12 12 12 12 13 14 15 16 16 16 17 17 19 20 20 21 21 21 21 21 22 22 23 24 24 23 24 24 25 25 25 25 25 26
18 17 15 14 14 13 12 12 11 11 12 12 13 14 14 15 16 17 18 18 19 20 21 22 23 23 23 23 24 24 24 25 25 25 26 26 26 26 26 26 26 26
18 17 15 14 13 12 11 11 10 10 11 11 12 13 14 15 17 17 18 19 20 21 21 22 22 23 24 24 25 25 26 27 27 26 26 26 27 27 27 27 27 27
17 16 15 13 12 11 10 10 10 10 10 10 11 12 14 16 17 18 19 20 20 21 22 23 23 23 24 24 25 25 25 26 27 27 27 27 28 28 28 28 28 28
16 15 13 12 11 10 10 10 9 9 9 10 12 13 14 16 17 18 19 20 21 22 22 23 23 24 24 24 25 26 26 26 26 26 26 27 28 28 29 30 30 29
14 13 12 11 11 10 10 9 9 9 11 12 13 14 14 16 17 17 18 20 21 22 23 24 24 24 24 25 27 28 29 29 28 28 28 27 27 28 28 29 30 31
13 13 12 11 11 11 10 9 10 10 12 12 13 14 15 16 16 17 18 20 21 22 24 24 25 25 25 26 28 29 31 31 31 31 31 31 31 30 29 29 30 30
14 12 12 11 11 10 10 10 10 10 11 13 14 15 16 16 16 17 19 20 22 24 24 25 26 25 26 28 29 30 31 32 33 33 33 33 33 32 32 31 30 31
13 12 11 10 10 10 10 10 10 11 12 13 14 16 16 15 15 18 21 22 23 24 25 26 26 26 27 28 30 31 31 32 33 33 33 33 33 33 34 34 33 32
12 10 10 9 9 10 11 11 11 12 13 14 15 15 14 14 16 18 21 23 23 24 25 27 27 27 29 30 31 32 33 34 35 35 34 34 34 34 34 36 36 35
10 9 9 9 9 10 11 11 12 13 13 14 14 13 13 15 17 19 21 23 24 25 26 27 27 28 29 31 31 32 33 34 36 37 37 36 35 35 35 36 37 37
8 8 8 9 10 11 11 12 13 13 13 13 13 13 14 16 17 19 21 23 24 25 26 27 27 27 28 29 30 31 32 34 35 36 37 38 37 37 36 37 37 38
7 7 8 9 10 11 12 12 11 11 12 12 13 13 14 15 17 19 22 24 25 25 26 27 28 27 28 29 31 33 34 35 35 34 35 37 38 37 37 37 38 39
7 8 8 9 10 10 10 10 10 10 11 13 13 12 13 15 17 20 23 24 25 26 26 28 29 28 29 30 31 33 34 35 36 35 35 36 36 37 37 37 37 39
7 8 8 8 8 8 8 9 10 10 12 12 11 11 13 16 18 21 23 24 25 27 27 29 29 28 28 30 31 33 34 36 37 36 35 35 34 35 36 36 36 37
7 8 7 6 7 7 8 9 10 11 11 10 10 10 13 17 19 22 24 25 26 27 27 27 28 28 28 30 33 34 36 37 37 35 35 35 34 34 34 34 35 35

ECMWFNIL_925_spd_009.txt.gz
Wind_Speed
22 22 21 20 18 17 17 17 14 14 14 14 12 10 10 10 10 10 10 11 12 12 13 13 13 13 13 13 14 14 15 17 18 19 19 19 20 21 21 21 20 19
23 22 21 19 18 17 16 15 14 14 14 13 12 11 11 10 10 10 11 12 12 13 14 13 12 12 12 12 13 14 16 17 18 19 19 19 19 20 21 22 21 21
23 23 21 20 19 18 16 15 15 15 13 13 12 12 11 11 10 10 11 11 12 13 13 13 13 13 14 14 13 14 15 16 17 17 18 20 20 21 22 22 23 23
24 23 22 21 19 18 17 16 16 16 15 14 12 11 10 10 10 10 11 11 11 12 12 12 12 13 14 14 13 13 15 17 17 17 18 20 21 22 22 23 24 24
25 24 22 21 19 18 18 18 18 17 16 13 11 10 10 10 10 11 12 12 11 11 12 12 13 13 13 13 14 15 17 17 17 17 18 19 20 21 22 22 22 24
26 25 23 22 21 20 19 19 19 17 14 12 11 11 11 11 12 12 12 12 12 12 14 14 14 14 14 14 15 16 16 16 16 16 18 20 21 21 22 22 22 23
27 26 25 23 23 22 20 19 18 16 13 12 12 12 12 12 12 11 11 11 12 13 15 15 15 15 15 15 16 16 17 18 19 19 19 20 21 21 21 22 23 23
28 26 25 24 24 23 21 19 17 15 13 12 12 13 12 12 12 12 12 14 15 16 15 15 15 15 14 14 15 16 18 19 20 20 20 20 21 22 22 22 22 24
28 26 25 24 23 22 21 19 17 14 13 13 13 12 12 12 12 12 13 14 16 16 15 15 15 15 15 15 15 17 18 19 20 21 22 22 22 23 23 23 23 25
28 26 25 24 23 22 20 18 16 14 13 12 12 12 12 12 12 13 13 14 14 15 16 16 17 17 17 18 18 19 20 20 21 22 22 23 24 24 24 23 24 24
28 27 26 25 23 21 19 17 15 13 13 13 12 12 12 13 13 14 14 14 14 15 15 15 15 16 17 18 19 19 20 21 22 23 23 23 24 25 25 24 24 24
28 27 26 25 23 21 19 16 14 14 14 13 13 13 13 14 14 14 14 14 15 15 15 16 16 17 18 19 19 20 21 22 22 22 23 23 24 25 26 25 25 25
29 28 26 24 23 20 18 16 15 15 14 14 14 13 14 14 14 14 14 15 16 16 17 17 17 17 18 20 21 22 23 24 24 24 24 24 25 25 26 27 27 27
29 27 25 23 21 20 18 17 16 15 15 15 14 14 15 15 14 15 14 14 15 15 15 15 16 17 18 19 21 22 22 23 24 25 25 25 25 25 25 26 26 26
28 26 24 22 21 19 18 17 16 16 15 15 15 15 16 15 15 15 15 15 15 15 15 15 16 18 19 20 21 22 22 23 23 24 24 25 26 26 26 26 26 26
27 26 24 22 21 19 18 17 16 16 16 16 16 16 15 14 13 13 14 15 14 15 16 17 18 20 21 22 23 23 24 24 25 24 24 24 25 26 27 28 28 30
27 25 24 22 21 19 18 17 16 16 17 17 16 15 13 12 12 13 14 13 13 14 16 17 18 20 21 22 24 25 26 27 28 28 27 26 26 26 27 28 28 30
27 25 23 22 20 18 17 17 17 17 16 16 14 11 11 12 13 13 11 11 13 15 16 17 19 20 22 23 25 26 27 28 30 31 31 30 29 28 29 29 29 30
25 24 22 20 18 17 17 17 17 16 15 13 11 11 12 13 12 11 10 12 14 15 17 19 20 22 23 24 26 27 27 28 29 31 32 32 31 31 31 30 30 30
22 21 20 18 17 16 17 16 15 14 12 11 11 12 12 12 10 10 11 13 14 16 18 19 20 22 23 23 24 25 25 26 27 28 30 30 30 30 31 32 32 32
21 19 17 16 15 15 15 14 13 12 10 11 11 10 8 7 8 9 11 13 15 17 19 21 22 22 23 23 23 23 24 24 26 27 28 29 30 30 31 32 32 32
19 17 15 14 13 13 13 12 11 11 10 8 7 5 5 6 8 10 13 15 17 18 20 22 23 23 23 24 25 26 27 27 28 28 29 29 30 31 31 32 32 33
17 15 13 12 12 12 11 9 8 7 5 3 4 5 6 8 11 13 15 17 18 20 22 23 25 26 27 28 28 28 28 28 28 29 29 30 31 32 32 33 34 34
16 13 11 10 9 8 6 4 3 2 2 4 6 7 8 9 12 14 15 17 19 22 23 25 27 28 28 28 28 28 28 28 29 29 29 30 32 32 33 34 35 35
16 13 10 8 5 2 2 1 2 3 4 6 7 8 9 10 12 14 16 18 20 22 23 25 27 28 28 28 28 29 29 29 30 30 30 31 32 33 34 35 35 35
14 12 9 6 4 2 2 4 6 6 7 8 10 9 9 11 14 16 18 19 20 21 23 25 27 28 28 28 29 29 29 30 31 31 31 31 32 33 34 34 33 34

ECMWFNIL_925_spd_012.txt.gz
Wind_Speed
26 25 23 23 23 21 19 20 20 17 15 15 14 13 12 11 10 9 9 9 9 9 9 10 11 13 13 13 13 14 15 16 16 15 15 16 17 17 17 18 18 18
27 26 24 24 24 22 21 21 20 19 17 16 15 14 13 12 12 11 10 10 11 11 11 11 12 11 11 11 12 13 14 15 15 16 16 17 18 19 19 19 20 20
27 27 26 25 25 23 22 21 21 20 18 17 17 16 15 14 14 13 12 12 12 12 11 11 10 10 10 11 12 12 13 13 14 16 18 18 19 19 19 20 20 20
29 28 28 27 26 25 23 22 22 21 19 19 19 19 17 16 14 14 13 12 12 11 11 10 9 9 11 12 13 12 12 12 13 14 16 17 17 18 19 19 20 21
30 30 29 28 26 25 23 23 23 22 20 20 20 19 17 16 14 13 12 11 11 11 11 10 10 11 11 12 13 13 12 13 14 14 15 17 17 19 20 19 19 21
32 31 30 29 27 25 25 24 23 22 21 20 19 17 16 14 13 11 11 10 10 10 11 11 11 11 12 12 12 13 14 14 15 15 16 18 19 20 19 19 19 21
33 32 30 29 27 26 25 24 23 23 22 20 18 16 14 13 12 11 10 10 10 10 11 11 12 12 11 11 12 13 13 13 13 14 15 17 18 19 19 19 20 21
34 32 31 29 28 26 25 25 24 23 21 20 17 15 13 12 12 11 10 9 10 11 12 13 13 13 12 11 12 12 13 12 13 14 15 16 17 18 19 20 20 21
34 33 31 30 28 27 26 25 24 22 21 19 16 14 13 12 11 10 9 9 11 11 11 12 12 11 11 11 12 12 13 14 14 15 15 16 17 18 19 20 21 21
35 33 32 31 30 29 27 25 23 22 20 17 15 13 12 12 10 9 9 10 10 9 9 9 9 8 9 9 11 12 13 15 15 15 15 16 18 20 20 20 20 20
36 34 33 32 31 30 28 26 23 21 19 16 14 13 12 10 10 9 10 10 9 9 9 9 9 10 10 11 11 12 13 14 15 16 17 17 19 20 20 19 19 20
36 35 34 34 32 30 28 26 23 20 18 16 13 12 11 10 10 10 10 10 10 10 10 10 11 11 12 12 13 13 13 14 15 16 17 18 19 21 21 21 21 21
38 37 36 34 32 30 27 25 22 20 18 15 13 12 11 11 11 11 11 11 11 11 11 12 12 13 13 14 14 15 15 16 17 17 17 17 18 20 21 21 21 21
38 37 36 34 31 28 26 24 21 19 17 14 13 13 13 12 12 12 13 12 13 13 13 13 14 14 15 16 17 18 18 19 19 19 19 18 18 18 19 19 20 21
37 35 34 32 29 27 25 23 21 18 16 15 14 14 13 13 13 13 13 13 14 14 13 13 13 14 15 17 18 19 20 20 21 21 23 23 22 21 21 21 21 21
28 30 30 29 28 27 25 22 20 17 16 15 15 14 13 12 12 12 13 13 13 13 12 12 13 15 16 18 19 20 20 21 21 23 24 25 25 24 24 24 24 23
22 24 26 26 26 25 23 21 19 17 16 15 14 13 13 12 11 12 12 11 11 10 11 12 14 16 17 19 19 20 21 22 23 24 25 26 26 26 27 26 26 25
25 25 25 25 25 23 22 20 18 17 16 15 14 13 12 11 11 11 9 8 8 9 11 13 15 17 18 20 21 20 20 22 23 24 25 26 27 26 27 26 26 26
28 28 27 25 24 22 20 19 18 17 15 14 14 13 11 10 9 8 7 6 7 10 12 14 16 19 20 21 22 21 20 20 22 24 25 26 26 26 26 26 26 26
31 30 29 27 24 22 21 19 17 16 14 14 13 11 10 9 7 6 5 7 10 12 14 15 18 20 22 23 24 23 22 23 24 26 27 27 28 27 27 27 27 27
31 29 29 27 25 23 21 18 16 15 14 13 11 10 9 8 6 5 6 9 11 13 14 17 20 22 23 24 25 25 26 28 28 29 30 29 29 28 28 28 28 27
29 27 25 25 23 21 19 17 16 15 13 11 10 9 8 6 5 6 8 10 12 15 17 19 21 23 23 24 25 26 28 29 30 31 31 31 30 29 28 28 28 27
29 26 23 21 20 18 17 15 14 13 11 9 8 7 6 5 6 8 9 11 14 16 18 20 22 24 25 27 28 28 29 30 31 32 32 32 32 31 30 30 29 28
29 26 23 20 18 16 14 12 11 9 8 7 6 5 5 6 9 11 12 13 15 16 18 21 23 25 28 30 30 30 29 30 31 32 32 32 32 32 31 31 30 29
29 27 24 20 17 14 13 11 9 7 5 4 4 5 7 9 12 14 14 13 15 17 18 20 24 27 29 31 32 31 29 29 30 30 31 31 31 32 31 31 31 31
30 27 24 21 18 14 11 8 5 3 2 3 5 7 10 13 14 14 13 14 15 16 18 21 24 28 30 31 31 31 29 29 29 29 29 30 31 31 31 30 30 30

ECMWFNIL_925_spd_015.txt.gz
Wind_Speed
26 25 24 23 23 23 22 20 18 16 15 13 12 11 9 7 6 6 7 7 7 7 7 7 9 10 10 10 10 10 10 10 10 10 10 10 11 11 11 12 12 12
28 26 25 24 24 24 23 22 20 18 16 15 14 12 9 9 9 9 8 8 8 7 7 8 10 10 9 10 11 11 11 10 9 8 9 9 10 10 10 11 12 13
29 28 27 26 26 26 25 24 22 19 18 17 15 13 11 11 11 10 10 9 8 8 9 10 10 9 9 10 12 12 12 12 10 9 9 9 10 10 11 12 12 13
31 29 28 28 28 27 26 25 24 21 20 19 17 14 14 13 12 11 11 10 9 10 11 11 11 9 10 11 12 12 12 12 12 11 11 11 11 12 12 13 13 12
33 30 29 29 29 29 27 26 26 24 22 21 18 17 16 15 14 13 12 11 11 10 11 11 10 10 11 12 13 13 13 12 13 13 13 13 12 13 13 14 14 13
34 31 30 31 31 30 29 28 27 25 23 22 21 19 19 18 17 15 14 12 10 10 10 9 9 10 11 13 13 13 13 13 14 14 14 14 15 15 14 14 15 15
36 33 32 32 32 31 30 29 27 26 25 24 23 22 21 20 18 16 14 11 9 9 9 8 9 11 12 13 13 13 13 14 14 14 15 16 16 16 16 15 16 17
37 35 34 34 33 32 31 29 28 27 25 25 24 23 22 21 19 16 12 10 9 8 7 8 10 11 11 12 12 12 12 12 13 14 15 16 17 17 17 17 18 19
38 37 36 36 35 34 33 31 29 27 26 25 25 24 23 20 17 14 11 9 8 8 7 9 10 10 10 10 10 11 11 11 12 13 15 16 17 18 18 19 19 20
38 38 38 37 37 36 34 32 30 27 26 26 25 24 22 19 15 13 11 9 9 8 8 9 9 8 9 10 10 11 11 12 13 14 15 16 17 17 18 19 19 19
37 38 38 38 38 36 34 33 30 28 26 26 25 23 20 17 15 13 11 10 9 9 9 8 7 8 9 10 11 12 13 14 15 16 17 18 19 19 18 18 19 20
37 37 38 38 37 36 34 32 30 27 26 26 25 22 18 16 15 13 11 10 9 9 8 7 7 8 9 10 11 12 13 14 15 17 18 19 20 21 20 19 19 19
39 39 39 39 38 36 34 32 29 27 26 25 23 19 17 16 14 12 11 10 9 8 6 7 7 7 8 9 10 11 13 14 16 17 18 19 20 21 21 21 21 21
36 38 38 37 36 35 33 31 29 27 25 24 20 18 16 15 13 12 11 9 7 6 5 6 6 6 7 8 10 11 13 14 16 17 19 20 20 21 21 21 22 23
25 27 30 32 34 35 34 32 29 26 24 22 19 17 15 14 13 12 10 8 6 5 4 4 5 6 7 8 10 12 14 15 17 18 20 21 22 22 22 22 22 23
22 22 25 27 29 30 30 29 27 24 23 21 18 16 15 14 13 12 9 7 5 4 4 5 5 6 7 9 11 14 16 18 19 20 21 21 23 23 24 24 23 24
25 24 23 23 22 22 23 23 23 22 21 20 18 16 15 15 13 11 9 7 5 5 5 5 5 6 9 12 14 16 17 19 20 22 22 22 23 23 24 24 24 24
28 26 23 23 24 24 25 24 23 23 22 20 18 17 16 14 13 11 9 7 6 6 6 5 6 9 12 14 15 17 18 19 20 22 23 24 25 25 26 26 26 26
29 28 27 28 29 29 29 27 26 25 23 21 18 17 15 14 13 11 9 7 7 6 4 5 8 11 13 15 16 18 20 21 22 22 24 26 27 28 28 27 27 28
30 30 30 31 31 30 29 28 27 25 23 20 18 17 15 14 13 11 9 7 6 4 4 7 10 12 14 15 16 19 22 23 24 25 26 27 28 28 28 28 28 28
30 31 31 32 32 31 29 28 28 27 24 21 18 17 16 15 13 10 8 6 5 4 5 8 10 13 14 15 17 20 23 25 26 28 29 29 29 29 29 29 29 29
31 31 32 34 34 33 33 32 30 27 24 21 18 17 16 14 12 9 7 5 4 4 6 8 10 12 13 15 18 22 25 26 28 29 30 29 29 29 29 30 29 29
32 31 32 35 36 35 34 32 29 25 22 20 19 18 15 13 10 7 5 4 5 5 5 8 10 12 14 17 21 24 26 27 29 29 29 29 29 29 29 29 29 29
31 31 33 36 37 36 34 30 26 24 22 19 18 16 13 10 7 5 4 5 5 5 6 9 11 12 15 20 24 26 27 28 29 29 29 29 29 29 29 28 28 28
30 32 36 38 37 35 32 28 24 21 19 16 13 11 9 7 5 4 5 6 5 5 7 10 12 14 18 23 26 28 28 28 28 28 29 29 29 29 28 28 27 28
27 29 31 31 30 28 25 23 21 18 16 14 11 8 6 5 5 5 6 6 6 7 9 10 12 16 21 26 28 29 28 28 28 28 29 29 29 28 28 29 29 31